Year,Month,Day,Hour,Minute,Value (Times are PST for temperature in C)
2015,06,21,00,00,12.10
2015,06,21,00,01,12.10
2015,06,21,00,02,12.10
2015,06,21,00,03,12.00
2015,06,21,00,04,12.00
2015,06,21,00,05,12.00
2015,06,21,00,06,12.00
2015,06,21,00,07,12.00
2015,06,21,00,08,12.00
2015,06,21,00,09,11.90
2015,06,21,00,10,11.90
2015,06,21,00,11,11.90
2015,06,21,00,12,11.90
2015,06,21,00,13,11.90
2015,06,21,00,14,11.90
2015,06,21,00,15,11.90
2015,06,21,00,16,11.90
2015,06,21,00,17,11.90
2015,06,21,00,18,11.90
2015,06,21,00,19,11.90
2015,06,21,00,20,11.90
2015,06,21,00,21,11.90
2015,06,21,00,22,11.90
2015,06,21,00,23,11.90
2015,06,21,00,24,11.90
2015,06,21,00,25,11.90
2015,06,21,00,26,11.90
2015,06,21,00,27,11.90
2015,06,21,00,28,11.90
2015,06,21,00,29,11.90
2015,06,21,00,30,11.80
2015,06,21,00,31,11.80
2015,06,21,00,32,11.80
2015,06,21,00,33,11.90
2015,06,21,00,34,11.90
2015,06,21,00,35,11.90
2015,06,21,00,36,11.90
2015,06,21,00,37,11.90
2015,06,21,00,38,11.90
2015,06,21,00,39,11.90
2015,06,21,00,40,11.90
2015,06,21,00,41,11.90
2015,06,21,00,42,11.90
2015,06,21,00,43,11.90
2015,06,21,00,44,11.90
2015,06,21,00,45,11.90
2015,06,21,00,46,11.90
2015,06,21,00,47,11.90
2015,06,21,00,48,11.90
2015,06,21,00,49,11.90
2015,06,21,00,50,11.90
2015,06,21,00,51,11.80
2015,06,21,00,52,11.80
2015,06,21,00,53,11.80
2015,06,21,00,54,11.80
2015,06,21,00,55,11.80
2015,06,21,00,56,11.80
2015,06,21,00,57,11.80
2015,06,21,00,58,11.80
2015,06,21,00,59,11.80
2015,06,21,01,00,11.80
2015,06,21,01,01,11.80
2015,06,21,01,02,11.80
2015,06,21,01,03,11.80
2015,06,21,01,04,11.80
2015,06,21,01,05,11.80
2015,06,21,01,06,11.80
2015,06,21,01,07,11.80
2015,06,21,01,08,11.80
2015,06,21,01,09,11.80
2015,06,21,01,10,11.80
2015,06,21,01,11,11.80
2015,06,21,01,12,11.80
2015,06,21,01,13,11.80
2015,06,21,01,14,11.80
2015,06,21,01,15,11.80
2015,06,21,01,16,11.80
2015,06,21,01,17,11.80
2015,06,21,01,18,11.80
2015,06,21,01,19,11.80
2015,06,21,01,20,11.80
2015,06,21,01,21,11.80
2015,06,21,01,22,11.80
2015,06,21,01,23,11.80
2015,06,21,01,24,11.80
2015,06,21,01,25,11.80
2015,06,21,01,26,11.80
2015,06,21,01,27,11.80
2015,06,21,01,28,11.80
2015,06,21,01,29,11.80
2015,06,21,01,30,11.80
2015,06,21,01,31,11.80
2015,06,21,01,32,11.80
2015,06,21,01,33,11.80
2015,06,21,01,34,11.70
2015,06,21,01,35,11.70
2015,06,21,01,36,11.70
2015,06,21,01,37,11.70
2015,06,21,01,38,11.70
2015,06,21,01,39,11.70
2015,06,21,01,40,11.70
2015,06,21,01,41,11.70
2015,06,21,01,42,11.70
2015,06,21,01,43,11.70
2015,06,21,01,44,11.70
2015,06,21,01,45,11.60
2015,06,21,01,46,11.60
2015,06,21,01,47,11.60
2015,06,21,01,48,11.60
2015,06,21,01,49,11.60
2015,06,21,01,50,11.60
2015,06,21,01,51,11.60
2015,06,21,01,52,11.60
2015,06,21,01,53,11.60
2015,06,21,01,54,11.60
2015,06,21,01,55,11.60
2015,06,21,01,56,11.60
2015,06,21,01,57,11.60
2015,06,21,01,58,11.60
2015,06,21,01,59,11.60
2015,06,21,02,00,11.60
2015,06,21,02,01,11.60
2015,06,21,02,02,11.60
2015,06,21,02,03,11.60
2015,06,21,02,04,11.60
2015,06,21,02,05,11.60
2015,06,21,02,06,11.60
2015,06,21,02,07,11.60
2015,06,21,02,08,11.60
2015,06,21,02,09,11.60
2015,06,21,02,10,11.70
2015,06,21,02,11,11.70
2015,06,21,02,12,11.70
2015,06,21,02,13,11.70
2015,06,21,02,14,11.80
2015,06,21,02,15,11.80
2015,06,21,02,16,11.80
2015,06,21,02,17,11.80
2015,06,21,02,18,11.80
2015,06,21,02,19,11.80
2015,06,21,02,20,11.80
2015,06,21,02,21,11.80
2015,06,21,02,22,11.80
2015,06,21,02,23,11.90
2015,06,21,02,24,11.90
2015,06,21,02,25,11.90
2015,06,21,02,26,11.90
2015,06,21,02,27,12.00
2015,06,21,02,28,12.00
2015,06,21,02,29,12.00
2015,06,21,02,30,12.00
2015,06,21,02,31,12.10
2015,06,21,02,32,12.10
2015,06,21,02,33,12.10
2015,06,21,02,34,12.10
2015,06,21,02,35,12.10
2015,06,21,02,36,12.10
2015,06,21,02,37,12.10
2015,06,21,02,38,12.10
2015,06,21,02,39,12.20
2015,06,21,02,40,12.20
2015,06,21,02,41,12.20
2015,06,21,02,42,12.20
2015,06,21,02,43,12.20
2015,06,21,02,44,12.30
2015,06,21,02,45,12.30
2015,06,21,02,46,12.30
2015,06,21,02,47,12.30
2015,06,21,02,48,12.30
2015,06,21,02,49,12.30
2015,06,21,02,50,12.30
2015,06,21,02,51,12.30
2015,06,21,02,52,12.30
2015,06,21,02,53,12.30
2015,06,21,02,54,12.30
2015,06,21,02,55,12.30
2015,06,21,02,56,12.30
2015,06,21,02,57,12.30
2015,06,21,02,58,12.30
2015,06,21,02,59,12.30
2015,06,21,03,00,12.30
2015,06,21,03,01,12.30
2015,06,21,03,02,12.30
2015,06,21,03,03,12.30
2015,06,21,03,04,12.40
2015,06,21,03,05,12.40
2015,06,21,03,06,12.40
2015,06,21,03,07,12.40
2015,06,21,03,08,12.40
2015,06,21,03,09,12.40
2015,06,21,03,10,12.50
2015,06,21,03,11,12.50
2015,06,21,03,12,12.50
2015,06,21,03,13,12.50
2015,06,21,03,14,12.50
2015,06,21,03,15,12.50
2015,06,21,03,16,12.50
2015,06,21,03,17,12.50
2015,06,21,03,18,12.60
2015,06,21,03,19,12.60
2015,06,21,03,20,12.60
2015,06,21,03,21,12.60
2015,06,21,03,22,12.60
2015,06,21,03,23,12.60
2015,06,21,03,24,12.50
2015,06,21,03,25,12.50
2015,06,21,03,26,12.50
2015,06,21,03,27,12.50
2015,06,21,03,28,12.50
2015,06,21,03,29,12.50
2015,06,21,03,30,12.50
2015,06,21,03,31,12.50
2015,06,21,03,32,12.50
2015,06,21,03,33,12.50
2015,06,21,03,34,12.50
2015,06,21,03,35,12.50
2015,06,21,03,36,12.50
2015,06,21,03,37,12.50
2015,06,21,03,38,12.50
2015,06,21,03,39,12.50
2015,06,21,03,40,12.50
2015,06,21,03,41,12.50
2015,06,21,03,42,12.50
2015,06,21,03,43,12.50
2015,06,21,03,44,12.50
2015,06,21,03,45,12.50
2015,06,21,03,46,12.50
2015,06,21,03,47,12.50
2015,06,21,03,48,12.40
2015,06,21,03,49,12.40
2015,06,21,03,50,12.40
2015,06,21,03,51,12.40
2015,06,21,03,52,12.40
2015,06,21,03,53,12.40
2015,06,21,03,54,12.40
2015,06,21,03,55,12.40
2015,06,21,03,56,12.40
2015,06,21,03,57,12.40
2015,06,21,03,58,12.40
2015,06,21,03,59,12.40
2015,06,21,04,00,12.40
2015,06,21,04,01,12.40
2015,06,21,04,02,12.40
2015,06,21,04,03,12.40
2015,06,21,04,04,12.40
2015,06,21,04,05,12.40
2015,06,21,04,06,12.40
2015,06,21,04,07,12.30
2015,06,21,04,08,12.30
2015,06,21,04,09,12.30
2015,06,21,04,10,12.30
2015,06,21,04,11,12.30
2015,06,21,04,12,12.30
2015,06,21,04,13,12.30
2015,06,21,04,14,12.30
2015,06,21,04,15,12.30
2015,06,21,04,16,12.30
2015,06,21,04,17,12.30
2015,06,21,04,18,12.30
2015,06,21,04,19,12.30
2015,06,21,04,20,12.30
2015,06,21,04,21,12.30
2015,06,21,04,22,12.30
2015,06,21,04,23,12.30
2015,06,21,04,24,12.30
2015,06,21,04,25,12.20
2015,06,21,04,26,12.20
2015,06,21,04,27,12.20
2015,06,21,04,28,12.20
2015,06,21,04,29,12.20
2015,06,21,04,30,12.20
2015,06,21,04,31,12.10
2015,06,21,04,32,12.10
2015,06,21,04,33,12.10
2015,06,21,04,34,12.10
2015,06,21,04,35,12.20
2015,06,21,04,36,12.20
2015,06,21,04,37,12.20
2015,06,21,04,38,12.20
2015,06,21,04,39,12.10
2015,06,21,04,40,12.10
2015,06,21,04,41,12.10
2015,06,21,04,42,12.10
2015,06,21,04,43,12.10
2015,06,21,04,44,12.00
2015,06,21,04,45,12.00
2015,06,21,04,46,12.00
2015,06,21,04,47,11.90
2015,06,21,04,48,11.90
2015,06,21,04,49,11.90
2015,06,21,04,50,11.80
2015,06,21,04,51,11.80
2015,06,21,04,52,11.80
2015,06,21,04,53,11.80
2015,06,21,04,54,11.80
2015,06,21,04,55,11.80
2015,06,21,04,56,11.80
2015,06,21,04,57,11.80
2015,06,21,04,58,11.80
2015,06,21,04,59,11.80
2015,06,21,05,00,11.80
2015,06,21,05,01,11.80
2015,06,21,05,02,11.80
2015,06,21,05,03,11.80
2015,06,21,05,04,11.80
2015,06,21,05,05,11.80
2015,06,21,05,06,11.80
2015,06,21,05,07,11.80
2015,06,21,05,08,11.80
2015,06,21,05,09,11.80
2015,06,21,05,10,11.90
2015,06,21,05,11,11.90
2015,06,21,05,12,11.90
2015,06,21,05,13,11.90
2015,06,21,05,14,11.90
2015,06,21,05,15,11.90
2015,06,21,05,16,11.90
2015,06,21,05,17,11.90
2015,06,21,05,18,11.90
2015,06,21,05,19,11.80
2015,06,21,05,20,11.80
2015,06,21,05,21,11.80
2015,06,21,05,22,11.80
2015,06,21,05,23,11.80
2015,06,21,05,24,11.80
2015,06,21,05,25,11.80
2015,06,21,05,26,11.80
2015,06,21,05,27,11.80
2015,06,21,05,28,11.80
2015,06,21,05,29,11.80
2015,06,21,05,30,11.80
2015,06,21,05,31,11.80
2015,06,21,05,32,11.80
2015,06,21,05,33,11.80
2015,06,21,05,34,11.80
2015,06,21,05,35,11.80
2015,06,21,05,36,11.80
2015,06,21,05,37,11.80
2015,06,21,05,38,11.80
2015,06,21,05,39,11.80
2015,06,21,05,40,11.80
2015,06,21,05,41,11.80
2015,06,21,05,42,11.80
2015,06,21,05,43,11.80
2015,06,21,05,44,11.80
2015,06,21,05,45,11.80
2015,06,21,05,46,11.80
2015,06,21,05,47,11.80
2015,06,21,05,48,11.80
2015,06,21,05,49,11.80
2015,06,21,05,50,11.90
2015,06,21,05,51,11.90
2015,06,21,05,52,11.90
2015,06,21,05,53,11.90
2015,06,21,05,54,11.90
2015,06,21,05,55,11.90
2015,06,21,05,56,11.90
2015,06,21,05,57,11.90
2015,06,21,05,58,11.90
2015,06,21,05,59,11.90
2015,06,21,06,00,12.00
2015,06,21,06,01,12.00
2015,06,21,06,02,12.00
2015,06,21,06,03,12.00
2015,06,21,06,04,12.00
2015,06,21,06,05,12.00
2015,06,21,06,06,12.10
2015,06,21,06,07,12.10
2015,06,21,06,08,12.10
2015,06,21,06,09,12.20
2015,06,21,06,10,12.20
2015,06,21,06,11,12.20
2015,06,21,06,12,12.30
2015,06,21,06,13,12.30
2015,06,21,06,14,12.30
2015,06,21,06,15,12.40
2015,06,21,06,16,12.50
2015,06,21,06,17,12.50
2015,06,21,06,18,12.60
2015,06,21,06,19,12.70
2015,06,21,06,20,12.80
2015,06,21,06,21,12.80
2015,06,21,06,22,12.80
2015,06,21,06,23,12.90
2015,06,21,06,24,13.00
2015,06,21,06,25,13.00
2015,06,21,06,26,13.10
2015,06,21,06,27,13.10
2015,06,21,06,28,13.20
2015,06,21,06,29,13.30
2015,06,21,06,30,13.30
2015,06,21,06,31,13.30
2015,06,21,06,32,13.40
2015,06,21,06,33,13.40
2015,06,21,06,34,13.50
2015,06,21,06,35,13.60
2015,06,21,06,36,13.60
2015,06,21,06,37,13.80
2015,06,21,06,38,13.90
2015,06,21,06,39,14.00
2015,06,21,06,40,14.10
2015,06,21,06,41,14.20
2015,06,21,06,42,14.20
2015,06,21,06,43,14.30
2015,06,21,06,44,14.40
2015,06,21,06,45,14.40
2015,06,21,06,46,14.50
2015,06,21,06,47,14.50
2015,06,21,06,48,14.60
2015,06,21,06,49,14.60
2015,06,21,06,50,14.60
2015,06,21,06,51,14.70
2015,06,21,06,52,14.70
2015,06,21,06,53,14.80
2015,06,21,06,54,14.80
2015,06,21,06,55,14.90
2015,06,21,06,56,14.90
2015,06,21,06,57,15.00
2015,06,21,06,58,15.10
2015,06,21,06,59,15.10
2015,06,21,07,00,15.20
2015,06,21,07,01,15.20
2015,06,21,07,02,15.30
2015,06,21,07,03,15.30
2015,06,21,07,04,15.30
2015,06,21,07,05,15.30
2015,06,21,07,06,15.30
2015,06,21,07,07,15.30
2015,06,21,07,08,15.30
2015,06,21,07,09,15.30
2015,06,21,07,10,15.30
2015,06,21,07,11,15.40
2015,06,21,07,12,15.40
2015,06,21,07,13,15.50
2015,06,21,07,14,15.50
2015,06,21,07,15,15.60
2015,06,21,07,16,15.60
2015,06,21,07,17,15.60
2015,06,21,07,18,15.70
2015,06,21,07,19,15.70
2015,06,21,07,20,15.70
2015,06,21,07,21,15.70
2015,06,21,07,22,15.60
2015,06,21,07,23,15.70
2015,06,21,07,24,15.70
2015,06,21,07,25,15.70
2015,06,21,07,26,15.70
2015,06,21,07,27,15.60
2015,06,21,07,28,15.60
2015,06,21,07,29,15.50
2015,06,21,07,30,15.50
2015,06,21,07,31,15.50
2015,06,21,07,32,15.40
2015,06,21,07,33,15.30
2015,06,21,07,34,15.30
2015,06,21,07,35,15.20
2015,06,21,07,36,15.20
2015,06,21,07,37,15.20
2015,06,21,07,38,15.20
2015,06,21,07,39,15.20
2015,06,21,07,40,15.20
2015,06,21,07,41,15.20
2015,06,21,07,42,15.20
2015,06,21,07,43,15.30
2015,06,21,07,44,15.30
2015,06,21,07,45,15.30
2015,06,21,07,46,15.30
2015,06,21,07,47,15.30
2015,06,21,07,48,15.40
2015,06,21,07,49,15.40
2015,06,21,07,50,15.40
2015,06,21,07,51,15.50
2015,06,21,07,52,15.50
2015,06,21,07,53,15.50
2015,06,21,07,54,15.50
2015,06,21,07,55,15.50
2015,06,21,07,56,15.60
2015,06,21,07,57,15.60
2015,06,21,07,58,15.60
2015,06,21,07,59,15.60
2015,06,21,08,00,15.70
2015,06,21,08,01,15.70
2015,06,21,08,02,15.70
2015,06,21,08,03,15.70
2015,06,21,08,04,15.70
2015,06,21,08,05,15.80
2015,06,21,08,06,15.90
2015,06,21,08,07,16.00
2015,06,21,08,08,16.10
2015,06,21,08,09,16.10
2015,06,21,08,10,15.90
2015,06,21,08,11,15.80
2015,06,21,08,12,15.80
2015,06,21,08,13,15.70
2015,06,21,08,14,15.70
2015,06,21,08,15,15.70
2015,06,21,08,16,15.80
2015,06,21,08,17,15.80
2015,06,21,08,18,15.80
2015,06,21,08,19,15.80
2015,06,21,08,20,15.80
2015,06,21,08,21,15.90
2015,06,21,08,22,16.00
2015,06,21,08,23,16.10
2015,06,21,08,24,16.20
2015,06,21,08,25,16.30
2015,06,21,08,26,16.40
2015,06,21,08,27,16.40
2015,06,21,08,28,16.40
2015,06,21,08,29,16.40
2015,06,21,08,30,16.40
2015,06,21,08,31,16.30
2015,06,21,08,32,16.40
2015,06,21,08,33,16.40
2015,06,21,08,34,16.40
2015,06,21,08,35,16.40
2015,06,21,08,36,16.60
2015,06,21,08,37,16.60
2015,06,21,08,38,16.60
2015,06,21,08,39,16.60
2015,06,21,08,40,16.50
2015,06,21,08,41,16.40
2015,06,21,08,42,16.50
2015,06,21,08,43,16.60
2015,06,21,08,44,16.60
2015,06,21,08,45,16.50
2015,06,21,08,46,16.40
2015,06,21,08,47,16.40
2015,06,21,08,48,16.40
2015,06,21,08,49,16.50
2015,06,21,08,50,16.60
2015,06,21,08,51,16.70
2015,06,21,08,52,16.70
2015,06,21,08,53,16.70
2015,06,21,08,54,16.70
2015,06,21,08,55,16.70
2015,06,21,08,56,16.70
2015,06,21,08,57,16.70
2015,06,21,08,58,16.70
2015,06,21,08,59,16.70
2015,06,21,09,00,16.70
2015,06,21,09,01,16.70
2015,06,21,09,02,16.70
2015,06,21,09,03,16.70
2015,06,21,09,04,16.70
2015,06,21,09,05,16.70
2015,06,21,09,06,16.60
2015,06,21,09,07,16.60
2015,06,21,09,08,16.60
2015,06,21,09,09,16.60
2015,06,21,09,10,16.60
2015,06,21,09,11,16.60
2015,06,21,09,12,16.60
2015,06,21,09,13,16.70
2015,06,21,09,14,16.70
2015,06,21,09,15,16.60
2015,06,21,09,16,16.70
2015,06,21,09,17,16.70
2015,06,21,09,18,16.60
2015,06,21,09,19,16.40
2015,06,21,09,20,16.40
2015,06,21,09,21,16.50
2015,06,21,09,22,16.60
2015,06,21,09,23,16.60
2015,06,21,09,24,16.60
2015,06,21,09,25,16.70
2015,06,21,09,26,16.70
2015,06,21,09,27,16.70
2015,06,21,09,28,16.70
2015,06,21,09,29,16.70
2015,06,21,09,30,16.80
2015,06,21,09,31,16.80
2015,06,21,09,32,16.90
2015,06,21,09,33,16.90
2015,06,21,09,34,16.90
2015,06,21,09,35,16.90
2015,06,21,09,36,16.80
2015,06,21,09,37,16.80
2015,06,21,09,38,16.90
2015,06,21,09,39,17.00
2015,06,21,09,40,17.10
2015,06,21,09,41,17.00
2015,06,21,09,42,17.00
2015,06,21,09,43,17.10
2015,06,21,09,44,17.20
2015,06,21,09,45,17.10
2015,06,21,09,46,17.00
2015,06,21,09,47,16.90
2015,06,21,09,48,16.90
2015,06,21,09,49,17.10
2015,06,21,09,50,17.30
2015,06,21,09,51,17.40
2015,06,21,09,52,17.40
2015,06,21,09,53,17.40
2015,06,21,09,54,17.30
2015,06,21,09,55,17.30
2015,06,21,09,56,17.30
2015,06,21,09,57,17.30
2015,06,21,09,58,17.30
2015,06,21,09,59,17.30
2015,06,21,10,00,17.20
2015,06,21,10,01,17.20
2015,06,21,10,02,17.10
2015,06,21,10,03,17.10
2015,06,21,10,04,17.10
2015,06,21,10,05,17.00
2015,06,21,10,06,17.00
2015,06,21,10,07,16.90
2015,06,21,10,08,17.00
2015,06,21,10,09,17.00
2015,06,21,10,10,17.10
2015,06,21,10,11,17.20
2015,06,21,10,12,17.20
2015,06,21,10,13,17.30
2015,06,21,10,14,17.10
2015,06,21,10,15,17.10
2015,06,21,10,16,17.10
2015,06,21,10,17,17.10
2015,06,21,10,18,17.10
2015,06,21,10,19,17.10
2015,06,21,10,20,17.20
2015,06,21,10,21,17.20
2015,06,21,10,22,17.30
2015,06,21,10,23,17.40
2015,06,21,10,24,17.50
2015,06,21,10,25,17.50
2015,06,21,10,26,17.50
2015,06,21,10,27,17.50
2015,06,21,10,28,17.50
2015,06,21,10,29,17.60
2015,06,21,10,30,17.70
2015,06,21,10,31,17.80
2015,06,21,10,32,17.90
2015,06,21,10,33,17.90
2015,06,21,10,34,17.90
2015,06,21,10,35,17.90
2015,06,21,10,36,17.90
2015,06,21,10,37,17.90
2015,06,21,10,38,17.80
2015,06,21,10,39,17.80
2015,06,21,10,40,17.90
2015,06,21,10,41,18.00
2015,06,21,10,42,18.10
2015,06,21,10,43,18.20
2015,06,21,10,44,18.20
2015,06,21,10,45,18.20
2015,06,21,10,46,18.20
2015,06,21,10,47,18.20
2015,06,21,10,48,18.20
2015,06,21,10,49,18.10
2015,06,21,10,50,17.90
2015,06,21,10,51,17.90
2015,06,21,10,52,17.90
2015,06,21,10,53,18.00
2015,06,21,10,54,18.10
2015,06,21,10,55,18.10
2015,06,21,10,56,18.20
2015,06,21,10,57,18.20
2015,06,21,10,58,18.20
2015,06,21,10,59,18.20
2015,06,21,11,00,18.30
2015,06,21,11,01,18.20
2015,06,21,11,02,18.20
2015,06,21,11,03,18.20
2015,06,21,11,04,18.20
2015,06,21,11,05,18.30
2015,06,21,11,06,18.30
2015,06,21,11,07,18.30
2015,06,21,11,08,18.30
2015,06,21,11,09,18.10
2015,06,21,11,10,18.10
2015,06,21,11,11,18.10
2015,06,21,11,12,18.00
2015,06,21,11,13,17.90
2015,06,21,11,14,17.80
2015,06,21,11,15,17.80
2015,06,21,11,16,17.90
2015,06,21,11,17,17.90
2015,06,21,11,18,17.90
2015,06,21,11,19,18.10
2015,06,21,11,20,18.20
2015,06,21,11,21,18.20
2015,06,21,11,22,18.20
2015,06,21,11,23,18.30
2015,06,21,11,24,18.40
2015,06,21,11,25,18.40
2015,06,21,11,26,18.40
2015,06,21,11,27,18.40
2015,06,21,11,28,18.50
2015,06,21,11,29,18.60
2015,06,21,11,30,18.60
2015,06,21,11,31,18.70
2015,06,21,11,32,18.70
2015,06,21,11,33,18.60
2015,06,21,11,34,18.50
2015,06,21,11,35,18.40
2015,06,21,11,36,18.40
2015,06,21,11,37,18.50
2015,06,21,11,38,18.60
2015,06,21,11,39,18.70
2015,06,21,11,40,18.80
2015,06,21,11,41,18.80
2015,06,21,11,42,18.80
2015,06,21,11,43,18.90
2015,06,21,11,44,18.90
2015,06,21,11,45,18.90
2015,06,21,11,46,18.90
2015,06,21,11,47,18.90
2015,06,21,11,48,18.90
2015,06,21,11,49,18.90
2015,06,21,11,50,19.00
2015,06,21,11,51,19.10
2015,06,21,11,52,19.10
2015,06,21,11,53,19.20
2015,06,21,11,54,19.30
2015,06,21,11,55,19.30
2015,06,21,11,56,19.40
2015,06,21,11,57,19.50
2015,06,21,11,58,19.50
2015,06,21,11,59,19.50
2015,06,21,12,00,19.50
2015,06,21,12,01,19.60
2015,06,21,12,02,19.60
2015,06,21,12,03,19.60
2015,06,21,12,04,19.50
2015,06,21,12,05,19.40
2015,06,21,12,06,19.30
2015,06,21,12,07,19.30
2015,06,21,12,08,19.30
2015,06,21,12,09,19.10
2015,06,21,12,10,19.00
2015,06,21,12,11,18.90
2015,06,21,12,12,18.80
2015,06,21,12,13,18.90
2015,06,21,12,14,18.90
2015,06,21,12,15,18.90
2015,06,21,12,16,19.00
2015,06,21,12,17,18.90
2015,06,21,12,18,18.90
2015,06,21,12,19,18.90
2015,06,21,12,20,19.10
2015,06,21,12,21,19.10
2015,06,21,12,22,19.10
2015,06,21,12,23,19.10
2015,06,21,12,24,19.20
2015,06,21,12,25,19.10
2015,06,21,12,26,19.10
2015,06,21,12,27,19.10
2015,06,21,12,28,19.20
2015,06,21,12,29,19.30
2015,06,21,12,30,19.40
2015,06,21,12,31,19.50
2015,06,21,12,32,19.50
2015,06,21,12,33,19.50
2015,06,21,12,34,19.50
2015,06,21,12,35,19.50
2015,06,21,12,36,19.50
2015,06,21,12,37,19.50
2015,06,21,12,38,19.60
2015,06,21,12,39,19.60
2015,06,21,12,40,19.70
2015,06,21,12,41,19.90
2015,06,21,12,42,19.90
2015,06,21,12,43,19.90
2015,06,21,12,44,19.90
2015,06,21,12,45,19.90
2015,06,21,12,46,19.90
2015,06,21,12,47,19.90
2015,06,21,12,48,19.90
2015,06,21,12,49,19.90
2015,06,21,12,50,19.90
2015,06,21,12,51,19.80
2015,06,21,12,52,19.80
2015,06,21,12,53,19.70
2015,06,21,12,54,19.60
2015,06,21,12,55,19.60
2015,06,21,12,56,19.60
2015,06,21,12,57,19.80
2015,06,21,12,58,19.90
2015,06,21,12,59,20.00
2015,06,21,13,00,20.10
2015,06,21,13,01,20.00
2015,06,21,13,02,19.80
2015,06,21,13,03,19.70
2015,06,21,13,04,19.50
2015,06,21,13,05,19.40
2015,06,21,13,06,19.30
2015,06,21,13,07,19.20
2015,06,21,13,08,19.20
2015,06,21,13,09,19.30
2015,06,21,13,10,19.40
2015,06,21,13,11,19.40
2015,06,21,13,12,19.30
2015,06,21,13,13,19.20
2015,06,21,13,14,19.10
2015,06,21,13,15,19.20
2015,06,21,13,16,19.20
2015,06,21,13,17,19.20
2015,06,21,13,18,19.20
2015,06,21,13,19,19.30
2015,06,21,13,20,19.30
2015,06,21,13,21,19.10
2015,06,21,13,22,19.10
2015,06,21,13,23,19.00
2015,06,21,13,24,19.10
2015,06,21,13,25,19.10
2015,06,21,13,26,19.10
2015,06,21,13,27,19.10
2015,06,21,13,28,19.10
2015,06,21,13,29,19.30
2015,06,21,13,30,19.50
2015,06,21,13,31,19.50
2015,06,21,13,32,19.50
2015,06,21,13,33,19.60
2015,06,21,13,34,19.70
2015,06,21,13,35,19.90
2015,06,21,13,36,19.90
2015,06,21,13,37,19.90
2015,06,21,13,38,19.90
2015,06,21,13,39,20.00
2015,06,21,13,40,20.10
2015,06,21,13,41,20.20
2015,06,21,13,42,20.10
2015,06,21,13,43,20.00
2015,06,21,13,44,20.00
2015,06,21,13,45,20.10
2015,06,21,13,46,20.10
2015,06,21,13,47,20.10
2015,06,21,13,48,20.00
2015,06,21,13,49,19.90
2015,06,21,13,50,19.70
2015,06,21,13,51,19.70
2015,06,21,13,52,19.70
2015,06,21,13,53,19.70
2015,06,21,13,54,19.60
2015,06,21,13,55,19.40
2015,06,21,13,56,19.40
2015,06,21,13,57,19.50
2015,06,21,13,58,19.50
2015,06,21,13,59,19.50
2015,06,21,14,00,19.50
2015,06,21,14,01,19.60
2015,06,21,14,02,19.70
2015,06,21,14,03,19.80
2015,06,21,14,04,19.80
2015,06,21,14,05,19.90
2015,06,21,14,06,19.90
2015,06,21,14,07,20.10
2015,06,21,14,08,20.10
2015,06,21,14,09,20.10
2015,06,21,14,10,20.10
2015,06,21,14,11,20.10
2015,06,21,14,12,20.20
2015,06,21,14,13,20.10
2015,06,21,14,14,20.00
2015,06,21,14,15,19.90
2015,06,21,14,16,20.00
2015,06,21,14,17,20.00
2015,06,21,14,18,20.10
2015,06,21,14,19,20.10
2015,06,21,14,20,20.10
2015,06,21,14,21,20.10
2015,06,21,14,22,20.10
2015,06,21,14,23,20.20
2015,06,21,14,24,20.40
2015,06,21,14,25,20.40
2015,06,21,14,26,20.40
2015,06,21,14,27,20.40
2015,06,21,14,28,20.50
2015,06,21,14,29,20.60
2015,06,21,14,30,20.70
2015,06,21,14,31,20.80
2015,06,21,14,32,20.90
2015,06,21,14,33,20.90
2015,06,21,14,34,20.90
2015,06,21,14,35,20.90
2015,06,21,14,36,20.80
2015,06,21,14,37,20.80
2015,06,21,14,38,20.70
2015,06,21,14,39,20.60
2015,06,21,14,40,20.60
2015,06,21,14,41,20.60
2015,06,21,14,42,20.60
2015,06,21,14,43,20.60
2015,06,21,14,44,20.60
2015,06,21,14,45,20.70
2015,06,21,14,46,20.80
2015,06,21,14,47,20.90
2015,06,21,14,48,21.00
2015,06,21,14,49,21.00
2015,06,21,14,50,21.10
2015,06,21,14,51,21.00
2015,06,21,14,52,20.90
2015,06,21,14,53,20.80
2015,06,21,14,54,20.70
2015,06,21,14,55,20.70
2015,06,21,14,56,20.70
2015,06,21,14,57,20.70
2015,06,21,14,58,20.70
2015,06,21,14,59,20.50
2015,06,21,15,00,20.40
2015,06,21,15,01,20.40
2015,06,21,15,02,20.40
2015,06,21,15,03,20.50
2015,06,21,15,04,20.60
2015,06,21,15,05,20.70
2015,06,21,15,06,20.80
2015,06,21,15,07,20.90
2015,06,21,15,08,21.00
2015,06,21,15,09,21.00
2015,06,21,15,10,21.10
2015,06,21,15,11,21.20
2015,06,21,15,12,21.30
2015,06,21,15,13,21.30
2015,06,21,15,14,21.30
2015,06,21,15,15,21.30
2015,06,21,15,16,21.30
2015,06,21,15,17,21.40
2015,06,21,15,18,21.50
2015,06,21,15,19,21.40
2015,06,21,15,20,21.30
2015,06,21,15,21,21.30
2015,06,21,15,22,21.30
2015,06,21,15,23,21.30
2015,06,21,15,24,21.30
2015,06,21,15,25,21.30
2015,06,21,15,26,21.30
2015,06,21,15,27,21.30
2015,06,21,15,28,21.30
2015,06,21,15,29,21.30
2015,06,21,15,30,21.40
2015,06,21,15,31,21.40
2015,06,21,15,32,21.30
2015,06,21,15,33,21.20
2015,06,21,15,34,21.10
2015,06,21,15,35,21.00
2015,06,21,15,36,21.00
2015,06,21,15,37,20.90
2015,06,21,15,38,20.90
2015,06,21,15,39,20.90
2015,06,21,15,40,20.90
2015,06,21,15,41,20.90
2015,06,21,15,42,21.00
2015,06,21,15,43,21.00
2015,06,21,15,44,21.10
2015,06,21,15,45,21.00
2015,06,21,15,46,21.00
2015,06,21,15,47,21.10
2015,06,21,15,48,21.10
2015,06,21,15,49,21.10
2015,06,21,15,50,21.10
2015,06,21,15,51,21.20
2015,06,21,15,52,21.30
2015,06,21,15,53,21.40
2015,06,21,15,54,21.50
2015,06,21,15,55,21.70
2015,06,21,15,56,21.70
2015,06,21,15,57,21.70
2015,06,21,15,58,21.80
2015,06,21,15,59,21.90
2015,06,21,16,00,21.90
2015,06,21,16,01,21.90
2015,06,21,16,02,21.90
2015,06,21,16,03,21.90
2015,06,21,16,04,21.90
2015,06,21,16,05,21.80
2015,06,21,16,06,21.70
2015,06,21,16,07,21.70
2015,06,21,16,08,21.60
2015,06,21,16,09,21.60
2015,06,21,16,10,21.60
2015,06,21,16,11,21.60
2015,06,21,16,12,21.60
2015,06,21,16,13,21.70
2015,06,21,16,14,21.70
2015,06,21,16,15,21.80
2015,06,21,16,16,21.80
2015,06,21,16,17,21.90
2015,06,21,16,18,21.90
2015,06,21,16,19,21.90
2015,06,21,16,20,21.90
2015,06,21,16,21,22.00
2015,06,21,16,22,22.00
2015,06,21,16,23,22.00
2015,06,21,16,24,22.10
2015,06,21,16,25,22.20
2015,06,21,16,26,22.30
2015,06,21,16,27,22.30
2015,06,21,16,28,22.30
2015,06,21,16,29,22.30
2015,06,21,16,30,22.20
2015,06,21,16,31,22.10
2015,06,21,16,32,22.10
2015,06,21,16,33,22.10
2015,06,21,16,34,22.00
2015,06,21,16,35,22.00
2015,06,21,16,36,21.90
2015,06,21,16,37,21.90
2015,06,21,16,38,22.00
2015,06,21,16,39,22.00
2015,06,21,16,40,21.90
2015,06,21,16,41,21.80
2015,06,21,16,42,21.80
2015,06,21,16,43,21.80
2015,06,21,16,44,21.80
2015,06,21,16,45,21.80
2015,06,21,16,46,21.90
2015,06,21,16,47,22.00
2015,06,21,16,48,22.10
2015,06,21,16,49,22.10
2015,06,21,16,50,22.20
2015,06,21,16,51,22.10
2015,06,21,16,52,22.00
2015,06,21,16,53,22.00
2015,06,21,16,54,21.90
2015,06,21,16,55,21.80
2015,06,21,16,56,21.80
2015,06,21,16,57,21.90
2015,06,21,16,58,21.90
2015,06,21,16,59,21.90
2015,06,21,17,00,21.90
2015,06,21,17,01,22.00
2015,06,21,17,02,22.00
2015,06,21,17,03,22.00
2015,06,21,17,04,21.90
2015,06,21,17,05,21.90
2015,06,21,17,06,21.90
2015,06,21,17,07,21.80
2015,06,21,17,08,21.80
2015,06,21,17,09,21.90
2015,06,21,17,10,21.90
2015,06,21,17,11,21.90
2015,06,21,17,12,21.80
2015,06,21,17,13,21.80
2015,06,21,17,14,21.80
2015,06,21,17,15,21.80
2015,06,21,17,16,21.90
2015,06,21,17,17,21.90
2015,06,21,17,18,21.90
2015,06,21,17,19,21.90